Location: Newark
(7.0858°N, 171.3717°E)
Time: 07:04:18
(UTC+00:00)

Courier 1B - Pass Details

Date: 29 November 2020
Orbit: 962 x 1209 km, 28.3° (Epoch: 20 January)

Event Time Altitude Azimuth Distance (km) Brightness Sun altitude
Rises 17:34:28 0° 297° (WNW) 4,038 - -13.9°
Reaches altitude 10° 17:37:16 10° 296° (WNW) 3,099 - -13.2°
Exits shadow 17:38:36 16° 295° (WNW) 2,658 9.1 -12.9°
Maximum altitude 17:45:02 79° 210° (SSW) 1,225 8.0 -11.4°
Drops below altitude 10° 17:52:54 10° 124° (SE) 3,132 11.6 -9.6°
Sets 17:55:44 0° 123° (ESE) 4,083 12.7 -8.9°
